Location: Christchurch
(43.5330°S, 172.6330°E)
Time: 10:53:52
(UTC+12:00)

BREEZE-M DEB (TANK) - Pass Details

Date: 24 January 2019
Orbit: 313 x 16760 km, 49.4° (Epoch: 19 April)

Event Time Altitude Azimuth Distance (km) Brightness Sun altitude
Rises 21:14:38 0° 312° (NW) 11,911 9.8 -2.5°
Reaches altitude 10° 21:27:01 10° 312° (NW) 8,033 8.9 -4.4°
Maximum altitude 21:44:58 69° 29° (NNE) 1,336 4.6 -7.1°
Drops below altitude 10° 21:49:19 10° 112° (ESE) 2,130 5.5 -7.8°
Enters shadow 21:52:19 -8° 117° (ESE) 3,501 6.7 -8.2°
